Flag for Norway Weather past 2 weeks in Langevåg, Norway

Now
39 °F

Rain showers. Partly cloudy.


Feels Like: 29 °F
Forecast: 36 / 43 °F
Wind: 20 mph from Northwest

Location: Alesund / Vigra

Current Time: Dec 20, 2014 at 6:38:56 PM

Latest Report: Dec 20, 2014 at 5:50 PM


Visibility: N/A

Pressure: 29.62 "Hg

Humidity: 70%

Dew point: 30 °F

Location of LangevågLocation

Historic Weather in Langevåg — Graph

°F

Langevåg temperature yesterday

Maximum temperature yesterday: 41 °F (at 12:20 AM)
Minimum temperature yesterday: 36 °F (at 2:20 AM)
Average temperature yesterday: 38 °F

Past Weeks' High & Low Weather Summary

 TemperatureHumidityPressure
High46 °F (Dec 14, 2:50 PM)100% (Dec 15, 1:20 PM)29.89 "Hg (Dec 15, 1:20 PM)
Low32 °F (Dec 13, 5:20 PM)53% (Dec 6, 1:50 AM)28.65 "Hg (Dec 11, 6:50 AM)
Average39 °F77%29.15 "Hg
* Reported Dec 5 5:20 PM — Dec 20 5:20 PM, Langevåg, Weather by CustomWeather, © 2014

Note: Actual official high and low records may vary slightly from our data, if they occured in-between our weather recording intervals... More about our weather records

Advertising

Langevåg weather history for previous 24 hours

 ConditionsComfort  
Time TempWeatherWind HumidityBarometerVisibility
5:20 PM
Dec 20
41 °FPartly cloudy.24 mph57%29.59 "HgN/A
4:50 PM41 °FScattered showers. Partly cloudy.22 mph70%29.56 "HgN/A
4:20 PM43 °FScattered showers. Partly cloudy.18 mph66%29.50 "HgN/A
3:50 PM41 °FRain showers. Partly cloudy.20 mph81%29.47 "HgN/A
3:20 PM41 °FScattered showers. Partly cloudy.22 mph81%29.45 "HgN/A
2:50 PM37 °FSprinkles. Partly sunny.18 mph93%29.42 "HgN/A
2:20 PM39 °FRain showers. Broken clouds.22 mph87%29.39 "Hg6 mi
1:50 PM39 °FSprinkles. Broken clouds.21 mph87%29.36 "HgN/A
1:20 PM41 °FSprinkles. Partly sunny.9 mph76%29.36 "HgN/A
12:50 PM41 °FScattered showers. Partly sunny.12 mph70%29.33 "HgN/A
12:20 PM37 °FScattered showers. Broken clouds.5 mph81%29.33 "HgN/A
11:50 AM37 °FScattered showers. Broken clouds.8 mph87%29.30 "HgN/A
11:20 AM39 °FThundershowers. Broken clouds.7 mph81%29.27 "HgN/A
10:50 AM37 °FScattered showers. Broken clouds.7 mph87%29.24 "HgN/A
10:20 AM37 °FScattered showers. Broken clouds.3 mph81%29.24 "HgN/A
9:50 AM37 °FScattered showers. Partly cloudy.5 mph81%29.21 "HgN/A
9:20 AM39 °FThundershowers. Partly cloudy.9 mph75%29.18 "HgN/A
8:50 AM39 °FThundershowers. Partly cloudy.7 mph75%29.15 "HgN/A
8:20 AM37 °FScattered showers. Partly cloudy.12 mph81%29.12 "HgN/A
7:50 AM39 °FPartly cloudy.7 mph81%29.12 "HgN/A
7:20 AM39 °FPartly cloudy.5 mph81%29.09 "HgN/A
6:50 AM39 °FThundershowers. Partly cloudy.6 mph75%29.09 "HgN/A
6:20 AM37 °FRain showers. Partly cloudy.6 mph87%29.06 "Hg4 mi
5:50 AM36 °FPassing clouds.8 mph93%29.06 "HgN/A
5:20 AM36 °FLight rain. Partly cloudy.8 mph93%29.06 "HgN/A
4:50 AM34 °FLight snow. Partly cloudy.14 mph93%29.06 "Hg2 mi
4:20 AM34 °FLight rain. Mostly cloudy.14 mph100%29.03 "Hg4 mi
3:50 AM34 °FLight snow. Overcast.13 mph93%29.03 "Hg1 mi
3:20 AM36 °FDrizzle. Low clouds.16 mph93%29.03 "HgN/A
2:50 AM36 °FLight rain. Overcast.21 mph87%29.03 "Hg2 mi
2:20 AM37 °FLight rain. Mostly cloudy.16 mph81%29.00 "Hg4 mi
1:50 AM37 °FPassing clouds.17 mph81%29.00 "HgN/A
1:20 AM39 °FPartly cloudy.16 mph75%29.00 "HgN/A
12:50 AM39 °FPartly cloudy.21 mph75%29.00 "HgN/A
12:20 AM39 °FThundershowers. Partly cloudy.18 mph81%29.00 "HgN/A
11:50 PM
Dec 19
37 °FScattered showers. Partly cloudy.9 mph87%29.00 "HgN/A
11:20 PM37 °FSprinkles. Partly cloudy.15 mph87%29.00 "HgN/A
10:50 PM37 °FSprinkles. Partly cloudy.20 mph87%28.97 "HgN/A
10:20 PM39 °FSprinkles. Partly cloudy.14 mph87%28.97 "HgN/A
9:20 PM39 °FScattered showers. Partly cloudy.13 mph81%28.94 "HgN/A
8:50 PM39 °FThundershowers. Partly cloudy.15 mph81%28.97 "HgN/A
8:20 PM37 °FSprinkles. Partly cloudy.15 mph87%28.94 "HgN/A
7:50 PM39 °FThundershowers. Partly cloudy.16 mph81%28.94 "HgN/A
7:20 PM39 °FThundershowers. Partly cloudy.15 mph81%28.94 "HgN/A
6:50 PM39 °FThundershowers. Passing clouds.12 mph81%28.91 "HgN/A
6:20 PM39 °FScattered showers. Partly cloudy.17 mph87%28.94 "HgN/A
Weather by CustomWeather, © 2014

See weather overviewHow to use our weather pages